When you browse on this site, cookies collect data to enhance your experience and personalize the content and advertising you see.
Visit our Privacy Policy to learn more. By continuing to use the site, you agree to this use of cookies and data.
  • în România
  • Lista ţărilor
  • Pe 7 zile
  • Temperatura apei
  • Hartă satelitară
  • Meteo pe hartă
  • Widget-uri
  • user-avatar
    Intrare

    Meteo pe oră la Córdoba

    Astăzi, 17 Iunie, Luni

    Timp Temperatura Precipitaţii Vânt Presiune Umiditate
    00:00 +11°C° 0 mm 1 m/s 728 mmHg 75%
    01:00 +11°C° 0 mm 1 m/s 728 mmHg 74%
    02:00 +10°C° 0 mm 1 m/s 728 mmHg 71%
    03:00 +10°C° 0 mm 1 m/s 728 mmHg 72%
    04:00 +10°C° 0 mm 1 m/s 727 mmHg 72%
    05:00 +10°C° 0 mm 1 m/s 727 mmHg 73%
    06:00 +10°C° 0 mm 1 m/s 727 mmHg 73%
    07:00 +10°C° 0 mm 1 m/s 728 mmHg 73%
    08:00 +10°C° 0 mm 1 m/s 728 mmHg 74%
    09:00 +10°C° 0 mm 2 m/s 727 mmHg 70%
    10:00 +12°C° 0 mm 2 m/s 727 mmHg 66%
    11:00 +12°C° 0 mm 3 m/s 727 mmHg 62%
    12:00 +12°C° 0 mm 3 m/s 726 mmHg 61%
    13:00 +13°C° 0 mm 4 m/s 725 mmHg 59%
    14:00 +13°C° 0 mm 4 m/s 724 mmHg 57%
    15:00 +13°C° 0 mm 3 m/s 724 mmHg 61%
    16:00 +12°C° 0 mm 3 m/s 724 mmHg 65%
    17:00 +12°C° 0 mm 2 m/s 723 mmHg 69%
    18:00 +10°C° 0 mm 2 m/s 723 mmHg 71%
    19:00 +11°C° 0 mm 1 m/s 724 mmHg 74%
    20:00 +11°C° 0 mm 1 m/s 724 mmHg 76%
    21:00 +10°C° 0 mm 1 m/s 724 mmHg 78%
    22:00 +9°C° 0 mm 0 m/s 724 mmHg 80%
    23:00 +8°C° 0 mm 0 m/s 724 mmHg 82%

    Mâine, 18 Iunie, Marţi

    Timp Temperatura Precipitaţii Vânt Presiune Umiditate
    00:00 +9°C° 0 mm 1 m/s 724 mmHg 82%
    01:00 +9°C° 0 mm 1 m/s 724 mmHg 82%
    02:00 +8°C° 0 mm 1 m/s 724 mmHg 82%
    03:00 +8°C° 0 mm 1 m/s 724 mmHg 80%
    04:00 +8°C° 0 mm 1 m/s 724 mmHg 79%
    05:00 +8°C° 0 mm 1 m/s 724 mmHg 78%
    06:00 +7°C° 0 mm 2 m/s 725 mmHg 77%
    07:00 +8°C° 0 mm 2 m/s 725 mmHg 76%
    08:00 +8°C° 0 mm 2 m/s 725 mmHg 75%
    09:00 +10°C° 0 mm 2 m/s 726 mmHg 62%
    10:00 +14°C° 0 mm 1 m/s 726 mmHg 49%
    11:00 +16°C° 0 mm 1 m/s 726 mmHg 36%
    12:00 +18°C° 0 mm 1 m/s 726 mmHg 32%
    13:00 +19°C° 0 mm 1 m/s 725 mmHg 28%
    14:00 +19°C° 0 mm 2 m/s 725 mmHg 24%
    15:00 +18°C° 0 mm 2 m/s 725 mmHg 26%
    16:00 +17°C° 0 mm 2 m/s 724 mmHg 29%
    17:00 +16°C° 0 mm 2 m/s 724 mmHg 31%
    18:00 +15°C° 0 mm 2 m/s 725 mmHg 34%
    19:00 +13°C° 0 mm 2 m/s 725 mmHg 36%
    20:00 +12°C° 0 mm 2 m/s 725 mmHg 38%
    21:00 +12°C° 0 mm 2 m/s 726 mmHg 35%
    22:00 +12°C° 0 mm 2 m/s 726 mmHg 32%
    23:00 +10°C° 0 mm 2 m/s 727 mmHg 29%

    Poimâine, 19 Iunie, Miercuri

    Timp Temperatura Precipitaţii Vânt Presiune Umiditate
    00:00 +10°C° 0 mm 2 m/s 727 mmHg 27%
    01:00 +10°C° 0 mm 2 m/s 727 mmHg 25%
    02:00 +10°C° 0 mm 3 m/s 727 mmHg 23%
    03:00 +10°C° 0 mm 2 m/s 727 mmHg 22%
    04:00 +10°C° 0 mm 2 m/s 727 mmHg 22%
    05:00 +10°C° 0 mm 2 m/s 727 mmHg 22%
    06:00 +10°C° 0 mm 2 m/s 727 mmHg 21%
    07:00 +11°C° 0 mm 1 m/s 727 mmHg 21%
    08:00 +11°C° 0 mm 1 m/s 728 mmHg 21%
    09:00 +14°C° 0 mm 1 m/s 728 mmHg 19%
    10:00 +16°C° 0 mm 1 m/s 729 mmHg 17%
    11:00 +17°C° 0 mm 0 m/s 729 mmHg 14%
    12:00 +20°C° 0 mm 1 m/s 729 mmHg 15%
    13:00 +20°C° 0 mm 2 m/s 728 mmHg 15%
    14:00 +20°C° 0 mm 2 m/s 728 mmHg 15%
    15:00 +19°C° 0 mm 2 m/s 727 mmHg 19%
    16:00 +18°C° 0 mm 2 m/s 727 mmHg 24%
    17:00 +17°C° 0 mm 2 m/s 727 mmHg 28%
    18:00 +15°C° 0 mm 2 m/s 727 mmHg 32%
    19:00 +14°C° 0 mm 2 m/s 727 mmHg 36%
    20:00 +13°C° 0 mm 1 m/s 728 mmHg 39%
    21:00 +13°C° 0 mm 1 m/s 728 mmHg 39%
    22:00 +12°C° 0 mm 2 m/s 728 mmHg 39%
    23:00 +12°C° 0 mm 2 m/s 728 mmHg 38%

    20 Iunie, Joi

    Timp Temperatura Precipitaţii Vânt Presiune Umiditate
    00:00 +12°C° 0 mm 2 m/s 728 mmHg 38%
    01:00 +10°C° 0 mm 2 m/s 728 mmHg 37%
    02:00 +10°C° 0 mm 2 m/s 727 mmHg 36%
    03:00 +10°C° 0 mm 2 m/s 727 mmHg 36%
    04:00 +10°C° 0 mm 2 m/s 727 mmHg 37%
    05:00 +9°C° 0 mm 2 m/s 727 mmHg 37%
    06:00 +10°C° 0 mm 2 m/s 727 mmHg 37%
    07:00 +10°C° 0 mm 2 m/s 727 mmHg 37%
    08:00 +10°C° 0 mm 3 m/s 728 mmHg 37%
    09:00 +12°C° 0 mm 4 m/s 728 mmHg 33%
    10:00 +15°C° 0 mm 5 m/s 728 mmHg 29%
    11:00 +17°C° 0 mm 6 m/s 728 mmHg 24%
    12:00 +19°C° 0 mm 6 m/s 727 mmHg 24%
    13:00 +20°C° 0 mm 6 m/s 727 mmHg 24%
    14:00 +21°C° 0 mm 7 m/s 726 mmHg 24%
    15:00 +19°C° 0 mm 6 m/s 725 mmHg 30%
    16:00 +17°C° 0 mm 6 m/s 725 mmHg 37%
    17:00 +15°C° 0 mm 6 m/s 724 mmHg 44%
    18:00 +15°C° 0 mm 5 m/s 725 mmHg 48%
    19:00 +14°C° 0 mm 5 m/s 725 mmHg 53%
    20:00 +13°C° 0 mm 4 m/s 725 mmHg 58%
    21:00 +12°C° 0 mm 4 m/s 725 mmHg 60%
    22:00 +12°C° 0 mm 4 m/s 725 mmHg 61%
    23:00 +12°C° 0 mm 4 m/s 725 mmHg 63%

    21 Iunie, Vineri

    Timp Temperatura Precipitaţii Vânt Presiune Umiditate
    00:00 +11°C° 0 mm 4 m/s 725 mmHg 65%
    01:00 +10°C° 0 mm 5 m/s 724 mmHg 67%
    02:00 +10°C° 0 mm 5 m/s 724 mmHg 69%
    03:00 +11°C° 0 mm 4 m/s 724 mmHg 72%
    04:00 +11°C° 0 mm 4 m/s 724 mmHg 74%
    05:00 +11°C° 0 mm 4 m/s 723 mmHg 77%
    06:00 +11°C° 0 mm 4 m/s 724 mmHg 77%
    07:00 +11°C° 0 mm 4 m/s 724 mmHg 78%
    08:00 +11°C° 0 mm 3 m/s 724 mmHg 78%
    09:00 +13°C° 0 mm 3 m/s 725 mmHg 72%
    10:00 +15°C° 0 mm 4 m/s 725 mmHg 65%
    11:00 +18°C° 0 mm 4 m/s 725 mmHg 59%
    12:00 +19°C° 0 mm 4 m/s 725 mmHg 59%
    13:00 +19°C° 0 mm 4 m/s 724 mmHg 58%
    14:00 +20°C° 0 mm 4 m/s 724 mmHg 58%
    15:00 +19°C° 0 mm 4 m/s 724 mmHg 62%
    16:00 +18°C° 0 mm 3 m/s 723 mmHg 66%
    17:00 +17°C° 0 mm 3 m/s 723 mmHg 70%
    18:00 +16°C° 0 mm 2 m/s 724 mmHg 74%
    19:00 +16°C° 0 mm 2 m/s 724 mmHg 78%
    20:00 +15°C° 0 mm 1 m/s 725 mmHg 81%
    21:00 +15°C° 0 mm 1 m/s 725 mmHg 83%
    22:00 +15°C° 0 mm 2 m/s 725 mmHg 85%
    23:00 +15°C° 0 mm 2 m/s 725 mmHg 86%

    22 Iunie, Sâmbătă

    Timp Temperatura Precipitaţii Vânt Presiune Umiditate
    00:00 +15°C° 0 mm 1 m/s 725 mmHg 88%
    01:00 +14°C° 0 mm 1 m/s 725 mmHg 89%
    02:00 +13°C° 0 mm 0 m/s 725 mmHg 91%
    03:00 +13°C° 0 mm 0 m/s 724 mmHg 91%
    04:00 +13°C° 0 mm 0 m/s 724 mmHg 92%
    05:00 +12°C° 0 mm 0 m/s 724 mmHg 92%
    06:00 +13°C° 0 mm 0 m/s 725 mmHg 92%
    07:00 +14°C° 0 mm 1 m/s 725 mmHg 91%
    08:00 +14°C° 0 mm 1 m/s 725 mmHg 90%
    09:00 +16°C° 0 mm 1 m/s 725 mmHg 84%
    10:00 +18°C° 0 mm 1 m/s 726 mmHg 77%
    11:00 +20°C° 0 mm 1 m/s 726 mmHg 71%
    12:00 +20°C° 0 mm 2 m/s 726 mmHg 69%
    13:00 +20°C° 0 mm 2 m/s 725 mmHg 67%
    14:00 +21°C° 0 mm 2 m/s 724 mmHg 65%
    15:00 +20°C° 0 mm 2 m/s 724 mmHg 70%
    16:00 +19°C° 0 mm 2 m/s 724 mmHg 76%
    17:00 +18°C° 0 mm 2 m/s 724 mmHg 81%
    18:00 +18°C° 0 mm 2 m/s 724 mmHg 83%
    19:00 +18°C° 0 mm 1 m/s 725 mmHg 86%
    20:00 +18°C° 0 mm 1 m/s 725 mmHg 89%
    21:00 +18°C° 0 mm 1 m/s 725 mmHg 89%
    22:00 +18°C° 0 mm 1 m/s 725 mmHg 89%
    23:00 +16°C° 0 mm 0 m/s 725 mmHg 89%
    Arată mai mult